Home   Weather   Theni   Past weeks

Flag for India Past Weather in Theni, Tamil Nadu, India — Yesterday and Last 2 Weeks

Now
90 °F

Scattered clouds.


Feels Like: 93 °F
Forecast: 75 / 93 °F
Wind: 12 mph from Southwest

Location: Coimbatore / Peelamedu

Current Time: Sep 25, 2016 at 4:13:08 PM

Latest Report: Sep 25, 2016 at 3:30 PM


Visibility: 4 mi

Pressure: 29.71 "Hg

Humidity: 49%

Dew Point: 68 °F

Location of TheniLocation

Past Weather in Theni — Graph

°F

Theni Temperature Yesterday

Maximum temperature yesterday: 91 °F (at 12:30 PM)
Minimum temperature yesterday: 73 °F (at 12:30 AM)
Average temperature yesterday: 81 °F

High & Low Weather Summary for the Past Weeks

 TemperatureHumidityPressure
High93 °F (Sep 15, 2:00 PM)94% (Sep 11, 2:30 AM)29.95 "Hg (Sep 11, 2:30 AM)
Low72 °F (Sep 19, 4:30 AM)22% (Sep 13, 9:30 PM)29.68 "Hg (Sep 24, 3:00 PM)
Average81 °F71%29.83 "Hg
* Reported Sep 10 2:30 PM — Sep 25 3:00 PM, Theni, Weather by CustomWeather, © 2016

Note: Actual official high and low records may vary slightly from our data, if they occured in-between our weather recording intervals... More about our weather records

Advertising

Theni Weather History for the Previous 24 Hours

Scroll right to see more
 ConditionsComfort  
Time TempWeatherWind HumidityBarometerVisibility
3:00 PM
Sun, Sep 25
90 °FScattered clouds.12 mph49%29.71 "Hg4 mi
2:30 PM90 °FPassing clouds.16 mph49%29.74 "Hg4 mi
2:00 PM90 °FScattered clouds.12 mph46%29.74 "Hg4 mi
1:30 PM91 °FScattered clouds.12 mph44%29.74 "Hg4 mi
1:00 PM91 °FScattered clouds.13 mph41%29.77 "Hg4 mi
12:30 PM90 °FScattered clouds.10 mph43%29.77 "Hg4 mi
12:00 PM88 °FBroken clouds.10 mph46%29.80 "Hg4 mi
11:30 AM88 °FBroken clouds.10 mph43%29.83 "Hg4 mi
11:00 AM88 °FScattered clouds.12 mph52%29.83 "Hg4 mi
10:30 AM86 °FScattered clouds.12 mph59%29.83 "Hg4 mi
10:00 AM84 °FScattered clouds.8 mph62%29.83 "Hg4 mi
9:30 AM82 °FScattered clouds.6 mph66%29.83 "Hg4 mi
9:00 AM81 °FScattered clouds.8 mph70%29.83 "Hg4 mi
8:30 AM79 °FScattered clouds.7 mph79%29.83 "Hg4 mi
8:00 AM77 °FScattered clouds.6 mph79%29.83 "Hg3 mi
7:00 AM73 °FScattered clouds.3 mph94%29.80 "Hg3 mi
6:30 AM73 °FPassing clouds.6 mph94%29.80 "Hg3 mi
6:00 AM73 °FPassing clouds.7 mph94%29.77 "Hg3 mi
5:30 AM73 °FPassing clouds.5 mph94%29.77 "Hg4 mi
4:30 AM73 °FPassing clouds.7 mph94%29.74 "Hg4 mi
3:30 AM73 °FPassing clouds.5 mph94%29.74 "Hg4 mi
2:30 AM73 °FPassing clouds.7 mph89%29.74 "Hg4 mi
1:30 AM73 °FPassing clouds.8 mph94%29.77 "Hg4 mi
12:30 AM73 °FPassing clouds.6 mph94%29.77 "Hg4 mi
11:30 PM
Sat, Sep 24
75 °FPassing clouds.7 mph83%29.80 "Hg4 mi
11:00 PM75 °FPassing clouds.12 mph83%29.80 "Hg4 mi
10:30 PM75 °FPassing clouds.10 mph83%29.80 "Hg4 mi
10:00 PM75 °FPassing clouds.9 mph83%29.80 "Hg4 mi
9:30 PM75 °FPassing clouds.10 mph83%29.80 "Hg4 mi
9:00 PM77 °FPassing clouds.12 mph83%29.80 "Hg4 mi
8:30 PM77 °FPassing clouds.12 mph79%29.80 "Hg4 mi
8:00 PM77 °FPassing clouds.12 mph79%29.77 "Hg4 mi
7:30 PM79 °FPassing clouds.12 mph74%29.77 "Hg4 mi
7:00 PM79 °FPassing clouds.16 mph70%29.74 "Hg4 mi
6:30 PM81 °FPassing clouds.15 mph66%29.74 "Hg4 mi
6:00 PM82 °FPassing clouds.16 mph58%29.71 "Hg4 mi
5:30 PM86 °FPassing clouds.13 mph46%29.71 "Hg4 mi
5:00 PM86 °FPassing clouds.20 mph46%29.71 "Hg4 mi
4:30 PM88 °FPassing clouds.18 mph46%29.68 "Hg4 mi
4:00 PM88 °FPassing clouds.18 mph43%29.68 "Hg4 mi
Weather by CustomWeather, © 2016

See weather overviewHow to use our weather pages